| time (UTC) | temp F | wind direction | speed MPH | gust MPH | rain 1hr in | rain 24hr in | rain mn in | humidity % | barometer mb |
| 20260502181506 | 45 | 311 | 2.0 | 7.0 | 0.00 | 0.00 | 0.00 | 62 | 1017.0 |
| 20260502163012 | 44 | 304 | 4.0 | 12.0 | 0.00 | 0.00 | 0.00 | 63 | 1017.2 |
| 20260502161508 | 42 | 323 | 4.0 | 12.0 | 0.00 | 0.00 | 0.00 | 65 | 1017.3 |
| 20260502151507 | 42 | 307 | 4.0 | 11.0 | 0.00 | 0.00 | 0.00 | 72 | 1017.2 |
| 20260502123008 | 39 | 317 | 2.0 | 7.0 | 0.00 | 0.00 | 0.00 | 73 | 1017.2 |
| 20260502121510 | 39 | 302 | 3.0 | 8.0 | 0.00 | 0.00 | 0.00 | 74 | 1017.0 |
| 20260502114509 | 38 | 319 | 1.0 | 5.0 | 0.00 | 0.00 | 0.00 | 81 | 1017.0 |
| 20260502113008 | 37 | 274 | 1.0 | 6.0 | 0.00 | 0.00 | 0.00 | 80 | 1016.8 |
| 20260502111508 | 37 | 289 | 1.0 | 5.0 | 0.00 | 0.00 | 0.00 | 81 | 1016.8 |
| 20260502110008 | 38 | 301 | 2.0 | 9.0 | 0.00 | 0.00 | 0.00 | 80 | 1016.7 |
| 20260502104514 | 38 | 286 | 1.0 | 9.0 | 0.00 | 0.00 | 0.00 | 81 | 1016.6 |
| 20260502103009 | 37 | 319 | 2.0 | 7.0 | 0.00 | 0.00 | 0.00 | 79 | 1016.5 |
| 20260502101508 | 37 | 292 | 2.0 | 7.0 | 0.00 | 0.00 | 0.00 | 79 | 1016.5 |
| 20260502091509 | 37 | 311 | 1.0 | 9.0 | 0.00 | 0.00 | 0.00 | 74 | 1016.3 |
| 20260502071509 | 38 | 281 | 2.0 | 8.0 | 0.00 | 0.00 | 0.00 | 70 | 1015.8 |
| 20260502070010 | 37 | 323 | 2.0 | 6.0 | 0.00 | 0.00 | 0.00 | 71 | 1015.9 |
| 20260502064517 | 38 | 296 | 2.0 | 5.0 | 0.00 | 0.00 | 0.00 | 72 | 1016.3 |
| 20260502063014 | 37 | 316 | 0.0 | 5.0 | 0.00 | 0.00 | 0.00 | 72 | 1016.3 |
| 20260502061510 | 38 | 317 | 1.0 | 6.0 | 0.00 | 0.00 | 0.00 | 73 | 1016.4 |
| 20260502060009 | 38 | 307 | 2.0 | 6.0 | 0.00 | 0.00 | 0.00 | 72 | 1016.4 |
| 20260502054509 | 38 | 316 | 1.0 | 5.0 | 0.00 | 0.00 | 0.00 | 73 | 1016.5 |
| 20260502053012 | 38 | 300 | 2.0 | 7.0 | 0.00 | 0.00 | 0.00 | 71 | 1016.4 |
| 20260502051510 | 38 | 281 | 1.0 | 7.0 | 0.00 | 0.00 | 0.00 | 72 | 1016.4 |
| 20260502050013 | 38 | 304 | 2.0 | 6.0 | 0.00 | 0.00 | 0.00 | 73 | 1016.3 |
| 20260502044509 | 37 | 316 | 0.0 | 6.0 | 0.00 | 0.00 | 0.00 | 75 | 1016.3 |
| 20260502043010 | 37 | 300 | 2.0 | 7.0 | 0.00 | 0.00 | 0.00 | 74 | 1016.4 |
| 20260502041516 | 37 | 321 | 0.0 | 3.0 | 0.00 | 0.00 | 0.00 | 75 | 1016.4 |
| 20260502040010 | 37 | 302 | 1.0 | 4.0 | 0.00 | 0.00 | 0.00 | 76 | 1016.2 |
| 20260502034510 | 37 | 305 | 1.0 | 4.0 | 0.00 | 0.00 | 0.00 | 76 | 1016.3 |
| 20260502033013 | 37 | 289 | 2.0 | 6.0 | 0.00 | 0.00 | 0.00 | 77 | 1016.3 |
| 20260502031510 | 37 | 308 | 1.0 | 7.0 | 0.00 | 0.00 | 0.00 | 78 | 1016.2 |
| 20260502030019 | 37 | 327 | 0.0 | 7.0 | 0.00 | 0.00 | 0.00 | 78 | 1016.2 |
| 20260502024510 | 37 | 329 | 2.0 | 9.0 | 0.00 | 0.00 | 0.00 | 78 | 1016.3 |
| 20260502023011 | 37 | 335 | 1.0 | 6.0 | 0.00 | 0.00 | 0.00 | 78 | 1016.3 |
| 20260502021510 | 37 | 316 | 2.0 | 7.0 | 0.00 | 0.00 | 0.00 | 79 | 1016.2 |
| 20260502020011 | 37 | 318 | 3.0 | 8.0 | 0.00 | 0.00 | 0.00 | 79 | 1016.0 |
| 20260502014510 | 37 | 321 | 3.0 | 7.0 | 0.00 | 0.00 | 0.00 | 78 | 1015.5 |
| 20260502013011 | 37 | 332 | 2.0 | 7.0 | 0.00 | 0.00 | 0.00 | 78 | 1015.7 |
| 20260502011510 | 37 | 359 | 2.0 | 14.0 | 0.00 | 0.00 | 0.00 | 78 | 1015.6 |
| 20260502010011 | 37 | 336 | 3.0 | 8.0 | 0.00 | 0.00 | 0.00 | 78 | 1015.5 |
| 20260502004511 | 37 | 327 | 3.0 | 8.0 | 0.00 | 0.00 | 0.00 | 78 | 1015.4 |
| 20260502003011 | 38 | 319 | 3.0 | 9.0 | 0.00 | 0.00 | 0.00 | 76 | 1015.3 |
| 20260502001514 | 38 | 307 | 2.0 | 9.0 | 0.00 | 0.00 | 0.00 | 76 | 1015.2 |
| 20260502000015 | 38 | 307 | 2.0 | 9.0 | 0.00 | 0.00 | 0.00 | 75 | 1015.0 |
| 20260501234511 | 38 | 19 | 2.0 | 10.0 | 0.00 | 0.00 | 0.00 | 74 | 1015.0 |
| 20260501233011 | 38 | 30 | 4.0 | 12.0 | 0.00 | 0.00 | 0.00 | 73 | 1014.9 |
| 20260501231511 | 38 | 319 | 3.0 | 10.0 | 0.00 | 0.00 | 0.00 | 73 | 1014.9 |
| 20260501230014 | 39 | 22 | 3.0 | 9.0 | 0.00 | 0.00 | 0.00 | 71 | 1014.9 |
| 20260501224511 | 39 | 18 | 4.0 | 10.0 | 0.00 | 0.00 | 0.00 | 72 | 1015.0 |
| 20260501223011 | 39 | 345 | 4.0 | 11.0 | 0.00 | 0.00 | 0.00 | 73 | 1014.9 |
| 20260501221516 | 40 | 24 | 4.0 | 13.0 | 0.00 | 0.00 | 0.00 | 73 | 1014.7 |
| 20260501220014 | 41 | 30 | 2.0 | 13.0 | 0.00 | 0.00 | 0.00 | 75 | 1014.6 |
| 20260501214512 | 39 | 354 | 4.0 | 14.0 | 0.00 | 0.00 | 0.00 | 76 | 1014.6 |
| 20260501213012 | 39 | 25 | 3.0 | 15.0 | 0.00 | 0.00 | 0.00 | 79 | 1014.5 |
| 20260501211512 | 41 | 1 | 3.0 | 12.0 | 0.00 | 0.00 | 0.00 | 77 | 1014.4 |
| 20260501210012 | 40 | 323 | 5.0 | 10.0 | 0.00 | 0.00 | 0.00 | 76 | 1014.3 |
| 20260501204512 | 40 | 3 | 2.0 | 9.0 | 0.00 | 0.00 | 0.00 | 80 | 1014.3 |
| 20260501203012 | 40 | 287 | 3.0 | 11.0 | 0.00 | 0.00 | 0.00 | 76 | 1014.4 |
| 20260501201512 | 42 | 308 | 4.0 | 14.0 | 0.00 | 0.00 | 0.00 | 74 | 1014.4 |
| 20260501200014 | 43 | 353 | 4.0 | 10.0 | 0.00 | 0.00 | 0.00 | 77 | 1014.2 |
| 20260501194512 | 42 | 2 | 5.0 | 12.0 | 0.00 | 0.00 | 0.00 | 78 | 1014.2 |
| 20260501193030 | 41 | 297 | 5.0 | 11.0 | 0.00 | 0.00 | 0.00 | 78 | 1014.2 |
| 20260501191513 | 42 | 11 | 3.0 | 13.0 | 0.00 | 0.00 | 0.00 | 81 | 1014.1 |
| 20260501190015 | 41 | 15 | 4.0 | 11.0 | 0.00 | 0.00 | 0.00 | 79 | 1014.0 |
| 20260501184512 | 41 | 307 | 5.0 | 10.0 | 0.00 | 0.00 | 0.00 | 79 | 1013.9 |
| 20260501183014 | 43 | 297 | 3.0 | 11.0 | 0.00 | 0.00 | 0.00 | 81 | 1013.9 |